Showing default

CENTISPACE-1 S12, 62581

Orbit data source: Space-Track

CENTISPACE-1 S12, 62581 is a payload satellite owned by Centispace (CN) in LEO that was launched on Mon, 13 Jan 2025 UTC via a JIELONG-3 launch vehicle from the Yellow Sea Launch Area, China (YSLA). Payload-class satellites include a variety of spacecraft equipped with specific instruments for various scientific and technological missions. These include communications satellites like Starlink; space stations such as the ISS; scientific satellites like the Hubble; Earth observation satellites from companies like Planet Labs, Umbra, and HawkEye 360; GPS; miniature CubeSats for education and research; and military/defense satellites.

Loading next visibility...
Identifier
62581, 2025-007G
Orbit
LEO
Country
Flag of CNCN / PRC
Related business
Manufacturer
DFH Shenzhen
Mission
Operational Commercial Nav/Com
Bus & Motor
WK01, Unknown motor
Mass
140 kg wet, 140 kg dry
Launch date (UTC)
2025-01-13 (11 months ago)
Launch vehicle
JIELONG-3
Launch site
Yellow Sea Launch Area, China (YSLA)
Object type
Payload
Rocket body
Debris
Shape & HBR
Box + 2 Pan, 1.0 m
Radar Cross Section
0.833 m², Medium (>0.1 m² and < 1m²)

Expand to show TLE details & history
Last TLE update: 9 hours ago

TLE from 9 hours ago
0 CENTISPACE-1 S12
1 62581U 25007G   25351.90383532 -.00000413  00000-0 -12971-3 0  9998
2 62581  54.9762 215.2189 0009058 248.7714 111.2291 14.16364701 49531
Epoch: 2025-12-17T21:41Z
TLE epoch observation values (Epoch: 2025-12-17T21:41:31.371Z)
Latitude
-0.00006°
Longitude
163.07113°
Altitude
841.084 km
Speed
7.432 km/s
True Right ascension
14h 20m 52s
True Declination
0° 00' 00"
Sunlit
Object was in daylight at epoch
Visualization orbit readout
Latitude
Unknown
Longitude
Unknown
Altitude
Unknown
Speed
Unknown
Apparent Right ascension
Unknown
Apparent Declination
Unknown
Sunlit
N/A
Visualization observer readout
Local Sidereal Time
05:31:57
Azimuth
Unknown
Elevation
Unknown
Doppler factor
Unknown
Orbital elements
Apogee altitude
844.178 km
Perigee altitude
831.106 km
Semi-major axis
7,215.779 km
Eccentricity
0.00091
Inclination
54.9762°
RAAN
215.2189°
Arg. of periapsis
248.7714°
True anomaly
111.32581°
Mean anomaly
111.2291°
Eccentric anomaly
111.27746°
Mean motion
3.54094 °/min
Orbital period
101.67 mins
BSTAR
-0.00012971
Loading maneuver chart data...
Computing Atmospheric mass density...
Loading historical data...
Loading historical data...
Loading historical data...
Loading historical data...
Loading historical data...
Loading historical data...
Loading historical data...

Documentation

Showing up to 5 results
|